Preview of NWS' New Version of Forecast
This preview is not operational and should not be used for support decisions.

Regional Weather Roundup (RWR)

Issued by National Weather Service (NWS)

                            
000
ASUS46 KSEW 211810
RWRWA 

WASHINGTON REGIONAL WEATHER ROUNDUP
NATIONAL WEATHER SERVICE SEATTLE WA
1100 AM PDT SUN JUL 21 2019

NOTE:"FAIR" INDICATES FEW OR NO CLOUDS BELOW 12,000 FEET WITH NO 
SIGNIFICANT WEATHER AND/OR OBSTRUCTIONS TO VISIBILITY.

WAZ507-509-555>559-211900-
SEATTLE, TACOMA, EVERETT, AND VICINITY
  
CITY           SKY/WX    TMP DP  RH WIND       PRES   REMARKS
EVERETT        SUNNY     72  52  49 VRB6      30.02S                  
6HR MIN TEMP:  55; 6HR MAX TEMP:  72;                                

BOEING FIELD   SUNNY     74  51  44 VRB6      29.99F                  
6HR MIN TEMP:  58; 6HR MAX TEMP:  74;                                

RENTON         SUNNY     74  56  53 N8        29.98F                  
6HR MIN TEMP:  55; 6HR MAX TEMP:  74;                                

SEATAC AIRPORT SUNNY     74  54  49 W8        30.01S                  
6HR MIN TEMP:  56; 6HR MAX TEMP:  74;                                

JBLM-MCCHORD   SUNNY     75  60  58 NW3       30.00S                  
6HR MIN TEMP:  48; 6HR MAX TEMP:  75;                                

PUYALLUP       FAIR      77  52  41 CALM      30.00S                  
BREMERTON      SUNNY     76  53  44 CALM      30.01S                  
6HR MIN TEMP:  48; 6HR MAX TEMP:  76;                                

JBLM-FT LEWIS  SUNNY     74  59  58 SW6       29.99F                  
6HR MIN TEMP:  48; 6HR MAX TEMP:  74;                                

TACOMA NARROWS SUNNY     70  52  52 S6        30.00S                  
6HR MIN TEMP:  55; 6HR MAX TEMP:  72;                                

$$
 
WAZ001-503-506-510-514-515-211900-
NORTH INTERIOR
  
CITY           SKY/WX    TMP DP  RH WIND       PRES   REMARKS
BELLINGHAM     SUNNY     74  55  51 VRB3      30.01S                  
6HR MIN TEMP:  52; 6HR MAX TEMP:  75;                                

FRIDAY HARBOR  SUNNY     69  52  54 SE3       30.02S                  
6HR MIN TEMP:  49; 6HR MAX TEMP:  69;                                

EASTSOUND      SUNNY     68  57  68 N5        30.00S                  
PORT ANGELES   SUNNY     69  48  47 CALM      30.02F                  
6HR MIN TEMP:  47; 6HR MAX TEMP:  69;                                

EDIZ HOOK      FAIR      61  51  69 CALM      30.02S                  
6HR MIN TEMP:  51; 6HR MAX TEMP:  62;                                

PORT TOWNSEND  FAIR      72  50  46 W7        30.00F                  
NAS WHIDBEY    MOSUNNY   67  52  58 W7        30.05F                  
6HR MIN TEMP:  51; 6HR MAX TEMP:  67;                                

ARLINGTON        N/A     77  52  41 N6        30.00F                  
6HR MIN TEMP:  49; 6HR MAX TEMP:  77;                                

BURLINGTON     SUNNY     81  57  44 NE5       30.00F                  
$$
 
WAZ020-022-039-040-504-511-512-211900-
SOUTHWEST INTERIOR
  
CITY           SKY/WX    TMP DP  RH WIND       PRES   REMARKS
SHELTON        SUNNY     77  49  37 CALM      29.98F                  
6HR MIN TEMP:  45; 6HR MAX TEMP:  77;                                

OLYMPIA        SUNNY     73  51  46 N5        30.00F                  
6HR MIN TEMP:  49; 6HR MAX TEMP:  73;                                

CHEHALIS       FAIR      73  57  56 N7        30.00S                  
KELSO          SUNNY     69  58  67 VRB5      30.01S                  
6HR MIN TEMP:  52; 6HR MAX TEMP:  69;                                

VANCOUVER      SUNNY     73  53  49 SW8       29.98F                  
6HR MIN TEMP:  55; 6HR MAX TEMP:  73;                                

SCAPPOOSE, OR  SUNNY     74  55  51 SE5       29.97F                  
6HR MIN TEMP:  51; 6HR MAX TEMP:  74;                                

PORTLAND, OR   SUNNY     74  54  49 NW5       29.99F                  
6HR MIN TEMP:  58; 6HR MAX TEMP:  75;                                

$$
 
WAZ021-516-517-211900-
WASHINGTON COAST
  
CITY           SKY/WX    TMP DP  RH WIND       PRES   REMARKS
FORKS          SUNNY     69  55  60 W7        30.01S                  
6HR MIN TEMP:  46; 6HR MAX TEMP:  70;                                

HOQUIAM        SUNNY     68  60  75 SW9       30.01F                  
6HR MIN TEMP:  51; 6HR MAX TEMP:  68;                                

ASTORIA, OR    PTSUNNY   64  58  80 SW5       30.02S                  
6HR MIN TEMP:  53; 6HR MAX TEMP:  65;                                

$$
 
WAZ019-023-024-040-567>569-211900-
CASCADE MOUNTAINS AND COLUMBIA GORGE
  
CITY           SKY/WX    TMP DP  RH WIND       PRES   REMARKS
STAMPEDE PASS  SUNNY     70  45  40 VRB3      30.15S                  
6HR MIN TEMP:  52; 6HR MAX TEMP:  70;                                

TROUTDALE, OR  SUNNY     73  55  53 VRB5      29.98F                  
6HR MIN TEMP:  53; 6HR MAX TEMP:  74;                                

HOOD RIVER, OR CLEAR     77  43  29 CALM      29.99F                  
THE DALLES, OR SUNNY     79  42  26 CALM      29.98F                  
6HR MIN TEMP:  52; 6HR MAX TEMP:  79;                                

$$

WAZ026-027-041>044-520-521-211900-
EAST SLOPES
  
CITY           SKY/WX    TMP DP  RH WIND       PRES   REMARKS
OMAK           SUNNY     79  44  28 CALM      30.08F                  
6HR MIN TEMP:  58; 6HR MAX TEMP:  80;                                

WENATCHEE      SUNNY     75  42  30 SW13      30.07F                  
6HR MIN TEMP:  56; 6HR MAX TEMP:  76;                                

ELLENSBURG     SUNNY     80  43  26 S5        30.07F                  
6HR MIN TEMP:  47; 6HR MAX TEMP:  80;                                

YAKIMA         SUNNY     81  43  26 NW6       30.03F                  
6HR MIN TEMP:  47; 6HR MAX TEMP:  82;                                

SUNNYSIDE ARPT CLEAR     78  51  39 W3        30.02                   
6HR MIN TEMP:  47; 6HR MAX TEMP:  78;                                

YAKIMA TC      FAIR      81  37  20 NE8       30.03F                  
6HR MIN TEMP:  51; 6HR MAX TEMP:  81;                                

$$

WAZ028-034-035-211900-
COLUMBIA BASIN
  
CITY           SKY/WX    TMP DP  RH WIND       PRES   REMARKS
EPHRATA        SUNNY     81  40  23 NE9G18    30.05F                  
6HR MIN TEMP:  61; 6HR MAX TEMP:  81;                                

MOSES LAKE     SUNNY     84  42  22 VRB7      30.05F                  
6HR MIN TEMP:  58; 6HR MAX TEMP:  85;                                

PASCO          SUNNY     79  48  33 N9        30.02F                  
6HR MIN TEMP:  51; 6HR MAX TEMP:  79;                                

RICHLAND ARPT  CLEAR     81  45  28 N7        30.01F                  
6HR MIN TEMP:  54; 6HR MAX TEMP:  82;                                

HERMISTON, OR  SUNNY     79  45  29 VRB6      30.00F                  
6HR MIN TEMP:  48; 6HR MAX TEMP:  79;                                

$$

WAZ036>038-211900-
NORTHEAST WASHINGTON
  
CITY           SKY/WX    TMP DP  RH WIND       PRES   REMARKS
SPOKANE GEIGER MOSUNNY   73  44  35 NE9       30.10F                  
6HR MIN TEMP:  55; 6HR MAX TEMP:  74;                                

SPOKANE FELTS  SUNNY     77  41  27 E9        30.08F                  
6HR MIN TEMP:  50; 6HR MAX TEMP:  78;                                

FAIRCHILD AFB  MOSUNNY   74  42  32 NE9       30.10F                  
6HR MIN TEMP:  52; 6HR MAX TEMP:  74;                                

COEURDALENE,ID SUNNY     75  46  35 N14       30.11F                  
6HR MIN TEMP:  54; 6HR MAX TEMP:  75;                                

DEER PARK      MOSUNNY   75  45  34 NE12      30.12F                  
6HR MIN TEMP:  53; 6HR MAX TEMP:  75;                                

$$

WAZ029>033-211900-
SOUTHEAST WASHINGTON
  
CITY           SKY/WX    TMP DP  RH WIND       PRES   REMARKS
PULLMAN        SUNNY     75  38  26 VRB6      30.09F                  
6HR MIN TEMP:  45; 6HR MAX TEMP:  76;                                

LEWISTON, ID   SUNNY     75  42  30 CALM      30.04F                  
6HR MIN TEMP:  53; 6HR MAX TEMP:  77;                                

WALLA WALLA    SUNNY     74  40  29 S5        30.03S                  
6HR MIN TEMP:  57; 6HR MAX TEMP:  74;                                

PENDLETON, OR  SUNNY     79  37  22 N8        30.02F                  
6HR MIN TEMP:  50; 6HR MAX TEMP:  79;                                

$$